Content
SEND FEEDBACK

Daily
Averages
Monthly
Summary
United States of America

SAN RAFAEL, CALIFORNIA


Home > North America > United States > California
Elevation: 30 feet     Latitude: 37 58N     Longitude: 122 32W

WEATHER
 
SELECT A DAY
Number of Records: 166,360;   Date Range: 9/27/07 - 9/1/14
 
SHARE

PRINT THIS DATA

[ ← Previous Day ]
WEATHER ALMANAC - JANUARY 18, 2013
[ Next Day → ]
[ °C ]   °F
Weather ElementAverageHighLow
Temperature46.1 °F59 °F (2:35 pm)35.6 °F (12:55 am)
Dewpoint38.3 °F41 °F (6:15 am)35.6 °F (12:35 am)
Humidity76.5 %100 % (12:55 am)44 % (4:15 pm)
Barometer30.20 in30.26 in (9:35 am)30.16 in (3:15 pm)
Wind Speed7.8 mph12.7 mph (1:35 pm)
Weather ElementAverage
Visibility9.8 mi
Wind DirectionSSW (195.6 °)

Weather ElementTotal
Precipitation---
Heating Degree Days17.7 (Base 65)
Averaged from 71 records on January 18, 2013
WEATHER CONDITIONS BREAKOUT
WIND DIRECTION BREAKOUT
WEATHER BY HOUR - JANUARY 18, 2013
[ °C ]   °F
Local TimeTemperatureDewpointHumidityBarometerVisibilityWind DirectionWind SpeedGust SpeedPrecipitationEventsConditions
12:35 AM37.4 °F35.6 °F93 %30.21 in10.0 miSouth (190°)8.1 mphClear
12:55 AM35.6 °F35.6 °F100 %30.21 in10.0 miSouth (190°)8.1 mphClear
1:15 AM35.6 °F35.6 °F100 %30.21 in10.0 miSouth (190°)8.1 mphClear
1:35 AM37.4 °F35.6 °F93 %30.21 in10.0 miSSW (210°)9.2 mphClear
1:55 AM39.2 °F35.6 °F87 %30.21 in10.0 miSSW (210°)6.9 mphClear
2:15 AM37.4 °F35.6 °F93 %30.21 in10.0 miSSW (200°)8.1 mphClear
2:35 AM39.2 °F35.6 °F87 %30.21 in9.0 miSSW (200°)8.1 mphClear
2:55 AM37.4 °F35.6 °F93 %30.21 in8.0 miSW (220°)8.1 mphClear
3:15 AM41.0 °F37.4 °F87 %30.21 in10.0 miSW (220°)9.2 mphClear
3:35 AM42.8 °F37.4 °F81 %30.21 in10.0 miSSW (210°)6.9 mphClear
3:55 AM42.8 °F37.4 °F81 %30.21 in10.0 miSSW (210°)9.2 mphClear
4:15 AM41.0 °F37.4 °F87 %30.21 in10.0 miSW (220°)8.1 mphClear
4:35 AM42.8 °F39.2 °F87 %30.21 in10.0 miSSW (210°)8.1 mphClear
4:55 AM42.8 °F39.2 °F87 %30.20 in10.0 miSW (230°)9.2 mphClear
5:15 AM42.8 °F39.2 °F87 %30.20 in10.0 miSSW (210°)9.2 mphClear
5:35 AM41.0 °F39.2 °F93 %30.20 in10.0 miSW (220°)9.2 mphClear
5:55 AM42.8 °F39.2 °F87 %30.21 in9.0 miSW (230°)9.2 mphClear
6:15 AM41.0 °F41.0 °F100 %30.21 in10.0 miSW (220°)8.1 mphClear
6:35 AM42.8 °F41.0 °F93 %30.21 in10.0 miSW (220°)9.2 mphClear
6:55 AM42.8 °F41.0 °F93 %30.21 in10.0 miSW (220°)9.2 mphClear
7:15 AM42.8 °F41.0 °F93 %30.22 in10.0 miSW (220°)8.1 mphClear
7:35 AM42.8 °F39.2 °F87 %30.22 in9.0 miSW (220°)8.1 mphClear
7:55 AM41.0 °F39.2 °F93 %30.23 in8.0 miSSW (210°)6.9 mphClear
8:15 AM42.8 °F39.2 °F87 %30.23 in8.0 miSSW (200°)8.1 mphClear
8:35 AM44.6 °F41.0 °F87 %30.24 in9.0 miSSW (200°)8.1 mphClear
8:55 AM46.4 °F41.0 °F81 %30.25 in9.0 miSSW (200°)8.1 mphClear
9:15 AM46.4 °F41.0 °F81 %30.25 in10.0 miSSW (200°)8.1 mphClear
9:35 AM48.2 °F41.0 °F76 %30.26 in10.0 miSSW (200°)10.4 mphClear
9:55 AM48.2 °F41.0 °F76 %30.26 in10.0 miSSW (200°)6.9 mphClear
10:15 AM48.2 °F41.0 °F76 %30.26 in10.0 miSouth (190°)8.1 mphClear
10:35 AM50.0 °F41.0 °F71 %30.25 in10.0 miSSW (200°)9.2 mphClear
10:55 AM50.0 °F41.0 °F71 %30.25 in10.0 miSSW (200°)8.1 mphClear
11:15 AM51.8 °F41.0 °F67 %30.24 in10.0 miSSW (200°)6.9 mphClear
11:35 AM53.6 °F41.0 °F62 %30.23 in10.0 miSSW (200°)8.1 mphClear
11:55 AM53.6 °F39.2 °F58 %30.22 in10.0 miSouth (180°)9.2 mphClear
12:15 PM53.6 °F39.2 °F58 %30.21 in10.0 miSouth (180°)10.4 mphClear
12:35 PM55.4 °F39.2 °F54 %30.20 in10.0 miSouth (190°)9.2 mphClear
12:55 PM55.4 °F39.2 °F54 %30.19 in10.0 miSouth (190°)8.1 mphClear
1:15 PM55.4 °F39.2 °F54 %30.18 in10.0 miSSW (200°)9.2 mphClear
1:35 PM57.2 °F39.2 °F51 %30.18 in10.0 miSouth (180°)12.7 mphClear
1:55 PM57.2 °F39.2 °F51 %30.18 in10.0 miSouth (190°)12.7 mphClear
2:15 PM57.2 °F39.2 °F51 %30.17 in10.0 miSSW (200°)11.5 mphClear
2:35 PM59.0 °F39.2 °F48 %30.17 in10.0 miSouth (190°)10.4 mphClear
2:55 PM59.0 °F39.2 °F48 %30.17 in10.0 miSouth (190°)10.4 mphClear
3:15 PM59.0 °F37.4 °F45 %30.16 in10.0 miSouth (190°)9.2 mphClear
3:35 PM59.0 °F37.4 °F45 %30.16 in10.0 miSouth (190°)9.2 mphClear
3:55 PM57.2 °F37.4 °F48 %30.16 in10.0 miSSW (200°)8.1 mphClear
4:15 PM57.2 °F35.6 °F44 %30.16 in10.0 miSSW (200°)8.1 mphClear
4:35 PM57.2 °F35.6 °F44 %30.16 in10.0 miSSW (210°)8.1 mphClear
4:55 PM55.4 °F35.6 °F47 %30.16 in10.0 miSW (220°)5.8 mphClear
5:15 PM53.6 °F35.6 °F51 %30.16 in10.0 miSW (220°)4.6 mphClear
5:35 PM50.0 °F37.4 °F62 %30.16 in10.0 miSouth (180°)5.8 mphClear
5:55 PM48.2 °F37.4 °F66 %30.16 in10.0 miSouth (190°)5.8 mphClear
6:15 PM46.4 °F37.4 °F71 %30.17 in10.0 miSouth (190°)6.9 mphClear
6:35 PM46.4 °F37.4 °F71 %30.17 in10.0 miSSW (200°)5.8 mphClear
6:55 PM44.6 °F39.2 °F81 %30.17 in10.0 miSouth (190°)5.8 mphClear
7:15 PM44.6 °F37.4 °F76 %30.17 in10.0 miSSW (210°)5.8 mphClear
7:35 PM44.6 °F39.2 °F81 %30.17 in10.0 miSSW (200°)5.8 mphClear
7:55 PM44.6 °F39.2 °F81 %30.18 in10.0 miSSW (210°)4.6 mphClear
8:15 PM44.6 °F39.2 °F81 %30.18 in10.0 miSSW (210°)4.6 mphClear
8:35 PM42.8 °F39.2 °F87 %30.18 in10.0 miSSW (200°)5.8 mphClear
8:55 PM41.0 °F39.2 °F93 %30.18 in10.0 miSSW (200°)6.9 mphClear
9:15 PM39.2 °F39.2 °F100 %30.18 in10.0 miSouth (190°)8.1 mphClear
9:35 PM39.2 °F37.4 °F93 %30.18 in10.0 miSouth (190°)8.1 mphClear
9:55 PM39.2 °F35.6 °F87 %30.18 in10.0 miSouth (190°)8.1 mphClear
10:15 PM41.0 °F35.6 °F81 %30.18 in10.0 miSouth (170°)5.8 mphClear
10:35 PM39.2 °F35.6 °F87 %30.18 in10.0 miSouth (190°)8.1 mphClear
10:55 PM39.2 °F35.6 °F87 %30.19 in10.0 miSouth (180°)5.8 mphClear
11:15 PM39.2 °F35.6 °F87 %30.19 in10.0 miSSW (210°)3.5 mphClear
11:35 PM37.4 °F35.6 °F93 %30.19 in10.0 miCalmClear
11:55 PM35.6 °F35.6 °F100 %30.19 in10.0 miCalmClear
Hourly data recorded from KDVO, located miles away from San Rafael, California







STORIES FROM OUR PARTNERS